Regional Weather Roundup
Issued by NWS

Home | Current Version | Previous Version | Graphics & Text | Print | Product List | Glossary On
Versions: 1 2 3 4 5 6 7 8 9 10 11 12 13 14 15 16 17 18 19 20 21 22 23 24 25 26 27 28 29 30 31 32 33 34 35 36 37 38 39 40 41 42 43 44 45 46 47 48 49 50
000
ASUS44 KMEG 291400
RWRTN
TENNESSEE HOURLY STATE WEATHER ROUNDUP
NATIONAL WEATHER SERVICE MEMPHIS TN
800 AM CST MON DEC 29 2014

TNZ002-004-019-021-049-052-054-088>092-291500-
WEST TENNESSEE

CITY           SKY/WX    TMP DP  RH WIND       PRES   REMARKS
MEMPHIS INTL   CLOUDY    37  34  89 NE10      30.22R WCI  30
NWS MEMPHIS      N/A     36 N/A N/A MISG        N/A
JACKSON        CLOUDY    35  31  85 N9        30.22R WCI  28
DYERSBURG      CLOUDY    34  19  55 N8        30.25S WCI  27
UNION CITY     CLOUDY    30  28  93 N8        30.23R WCI  23
PARIS          CLOUDY    30  27  86 N7        30.22R WCI  23
LEXINGTON      CLOUDY    34  34 100 N5        30.19R WCI  30
SAVANNAH       CLOUDY    36  36 100 N7        30.20R WCI  30
$$

TNZ008-025-027-028-033-062-065-066-291500-
NORTH MIDDLE TENNESSEE

CITY           SKY/WX    TMP DP  RH WIND       PRES   REMARKS
NASHVILLE      FOG       37  37 100 N5        30.19R VSB 1   WCI  33
CLARKSVILLE    CLOUDY    35  31  85 N9        30.22R WCI  28
COOKEVILLE     CLOUDY    39  39 100 N5        30.14R
CROSSVILLE     CLOUDY    41  38  89 N5        30.11R
$$

TNZ061-075-076-078-094-096-097-291500-
SOUTH MIDDLE TENNESSEE

CITY           SKY/WX    TMP DP  RH WIND       PRES   REMARKS
FAYETTEVILLE   CLOUDY    37  36  93 N6        30.14R WCI  33
TULLAHOMA      CLOUDY    37  37 100 N7        30.14R WCI  32
WINCHESTER     CLOUDY    39  39 100 N5        30.14R
SHELBYVILLE    CLOUDY    39  39 100 N8        30.17R WCI  34
$$

TNZ017-018-042-046-047-291500-
NORTHEAST TENNESSEE

CITY           SKY/WX    TMP DP  RH WIND       PRES   REMARKS
TRI CITIES     CLOUDY    48  48 100 VRB3      30.08R FOG
ELIZABETHTON   CLOUDY    46  46 100 CALM      30.07S
$$

TNZ012-013-036-069-073-074-291500-
CENTRAL EAST TENNESSEE

CITY           SKY/WX    TMP DP  RH WIND       PRES   REMARKS
KNOXVILLE      CLOUDY    46  44  93 NW6       30.10R
OAK RIDGE      CLOUDY    45  43  93 CALM      30.12R FOG
GATLINBURG     CLOUDY    46  45  93 NW3       30.09R VSB 1/2
$$

TNZ083-085-099-291500-
SOUTHEAST TENNESSEE

CITY           SKY/WX    TMP DP  RH WIND       PRES   REMARKS
CHATTANOOGA    CLOUDY    50  47  89 CALM      30.11R FOG
$$

SKY/WX REPORTED AS FAIR MEANS FEW OR NO CLOUDS BELOW
12 THOUSAND FEET.



USA.gov is the U.S. government's official web portal to all federal, state and local government web resources and services.